Location: Ergnies
(50.0854°N, 2.0375°E)
Time: 06:50:34
(UTC+00:00)

BREEZE-M DEB (TANK) - Pass Details

Date: 14 January 2026
Orbit: 290 x 14651 km, 49.5° (Epoch: 10 February)

Event Time Altitude Azimuth Distance (km) Brightness Sun altitude
Exits shadow 05:13:00 36° 270° (W) 2,486 5.0 -23.7°
Maximum altitude 05:16:02 48° 225° (SW) 1,572 4.3 -23.2°
Drops below altitude 10° 05:20:19 10° 150° (SSE) 2,100 5.7 -22.6°
Sets 05:21:45 0° 142° (SE) 2,673 6.5 -22.3°
